sat.trackr.live / text

‹ back to catalog

STARLINK-35539

NORAD 65915 · 2025-225F

PAYLOAD ACTIVE UNKNOWN

§ Identity

Operator
Country
US
Launch date
2025-10-08
Launch site
AFWTR
Launch vehicle
Mass (kg)
RCS (m²)

Purposes: comms

External: N2YO · Heavens-Above · Gunter

§ Orbital elements

Epoch: 2026-05-24T11:49:09.935040Z

Period
94.11 min
Inclination
53.1581°
Eccentricity
0.0000996
Mean motion
15.30198711 rev/d
Perigee alt
474.5 km
Apogee alt
475.9 km
Semi-major
6,853.4 km
B*
7.8055e-4
RAAN
173.6181°
Arg perigee
81.5283°
Mean anomaly
278.5830°
Rev number
3,601

§ Raw data

STARLINK-355391 65915U 25225F   26144.49247610  .00022829  00000+0  78055-3 0  99922 65915  53.1581 173.6181 0000996  81.5283 278.5830 15.30198711 36018

JSON: /api/v1/satellites/65915 · /tle

For live sub-satellite position, see the globe view (requires WebGL).

§ Visibility from observer

Set your observer location to see the next 7 days of passes ≥ 10°. The values pass through the URL so the page stays shareable.

No JS? Fill the form by hand. The geolocation button needs JavaScript.